www.pogodaiklimat.ru

Погода и климат >> Архив погоды >> Казахстан >> Алматы


АРХИВ ПОГОДЫ в Алматы

Время (UTC), дата Ветер
(напр.,м/с)
 
Видим.   Явления Облачность Т
(С)
Тd
(С)
f
(%)
Тe
(С)
Тes
(С)
Комфортность P
(гПа)
Po
(гПа)
Тmin
(С)
Tmax
(С)
R
(мм)
R24
(мм)
S
(см)
00 17.04 штиль 0
{2}
н/о слаб. ливневой дождь 10/10 600 м
[Cb cap]
+10.3 +9.1 92 +10 +10 по сезону 1013.1 916.1
03 17.04 штиль 0 10 км слаб. ливневой дождь 10/10 600 м
[Cb cap]
+10.7 +9.2 90 +10 +10 по сезону 1014.7 917.6
06 17.04 штиль 0 10 км {ливн. осадки} 10/4 600 м
[Cb cap Ac As]
+15.9 +5.0 48 +16 +20 тепло 1012.3 917.0 +10.3 3
09 17.04 С 1 10 км 10/4 600 м
[Cb cap Ac As]
+17.5 +4.6 42 +19 +21 тепло 1011.5 916.8
12 17.04 С 1 10 км 10/4 600 м
[Cb cap Ac As]
+17.1 +4.8 44 +18 +19 тепло 1011.3 916.5
15 17.04 штиль 0 н/о 4/0
[Ci fib]
+13.4 +8.2 71 +13 +13 по сезону 1013.6 917.5 +18.2
18 17.04 штиль 0 н/о ясно +11.9 +5.8 66 +12 +12 по сезону 1012.7 916.2 +18.2 0.0
21 17.04 штиль 0 н/о 6/0
[Ci fib]
+10.0 +5.2 72 +9 +9 по сезону 1012.0 914.9
00 18.04 ЮЗ 1
{4}
н/о 10/0
[Ci fib]
+9.7 +3.8 67 +9 +9 по сезону 1012.8 915.5
03 18.04 З 1 20 км 10/0
[Ci fib]
+14.0 +5.2 55 +15 +20 тепло 1014.1 918.1
06 18.04 штиль 0 20 км 3/0 1000 м
[Cu hum Ci ing]
+19.4 +7.0 44 +20 +40 опасность
простуды
1012.6 918.5 +9.1
09 18.04 штиль 0 10 км 6/6 1000 м
[Cu hum]
+20.4 +7.0 42 +21 +28 комфорт 1011.4 917.7
12 18.04 С 2 10 км 10/10 1000 м
[Cb cap]
+19.4 +9.0 51 +21 +21 комфорт 1012.9 918.7
15 18.04 штиль 0 н/о 8/0
[Ac As]
+17.0 +8.6 58 +17 +17 тепло 1013.9 918.9 +21.3
18 18.04 З 1 н/о 8/0
[Ci fib]
+12.5 +7.6 72 +13 +13 тепло 1014.0 917.6 +21.3
21 18.04 штиль 0 н/о 10/0
[Ci fib]
+10.7 +7.3 79 +10 +10 по сезону 1014.0 917.0
00 19.04 штиль 0
{4}
н/о 10/3 1000 м
[Cb cap Ci fib]
+10.5 +6.9 78 +10 +10 по сезону 1013.0 916.0
03 19.04 штиль 0 20 км 10/0
[Cs]
+12.0 +7.2 72 +12 +18 по сезону 1013.2 916.7
06 19.04 СЗ 1 10 км 10/0
[Cs]
+18.6 +8.8 53 +20 +35 опасность
простуды
1008.8 914.8 +9.6
09 19.04 штиль 0 10 км 10/6 600 м
[Cb cap Ac As]
+19.8 +11.6 59 +21 +23 комфорт 1006.7 913.4
12 19.04 СВ 1 10 км 10/10 600 м
[Cb cap]
+16.1 +7.5 57 +17 +17 по сезону 1012.1 917.0
15 19.04 СВ 1 н/о 10/10 600 м
[Cb cap]
+14.7 +8.0 64 +15 +15 по сезону 1013.9 918.2 +20.9
18 19.04 штиль 0 н/о в посл. час ливневой дождь 10/10 600 м
[Cb cap]
+15.3 +8.5 64 +15 +15 тепло 1011.1 915.9 +20.9
21 19.04 штиль 0 н/о {ливн. осадки} 10/3 600 м
[Cb cap Ac und Ci sp]
+13.3 +9.4 77 +13 +13 тепло 1010.5 914.7
00 20.04 штиль 0
{4}
н/о {ливн. осадки} 10/3 600 м
[Cb cap Ac As]
+12.3 +9.5 83 +12 +12 тепло 1008.6 912.7
03 20.04 штиль 0 20 км 10/4 600 м
[Cb cap Ac trans Ci]
+16.0 +10.0 68 +16 +18 тепло 1010.1 915.2
06 20.04 СВ 1 10 км 10/8 600 м
[Cb cap Ac und]
+14.9 +9.1 68 +15 +17 по сезону 1011.4 916.0 +12.3 0.0
09 20.04 штиль 0 10 км в посл. час ливневой дождь 10/8 600 м
[Cb cap Ac As]
+12.0 +10.1 88 +11 +12 холодно 1013.6 917.1
12 20.04 штиль 0 10 км {ливн. осадки} 10/10 600 м
[Cb cap]
+12.1 +10.4 89 +12 +12 холодно 1015.4 918.8
15 20.04 штиль 0 н/о 10/10 600 м
[Cb cap]
+12.9 +10.9 88 +12 +12 по сезону 1014.9 918.6 +17.8
18 20.04 штиль 0 н/о 10/8 600 м
[Cb cap Ac As]
+13.6 +10.5 82 +13 +13 по сезону 1013.3 917.4 +17.8 2
21 20.04 С 1 н/о 10/5 600 м
[Cb cap Ac As]
+12.7 +10.3 85 +13 +13 тепло 1012.1 916.0
00 21.04 штиль 0
{3}
10 км слаб. ливневой дождь 10/10 600 м
[Cb cap]
+12.0 +10.9 93 +11 +11 тепло 1013.2 916.8
03 21.04 штиль 0 4000 м дымка {ливн. осадки} 10/10 600 м
[Cb cap]
+11.5 +10.8 95 +11 +11 по сезону 1011.3 914.9
06 21.04 СВ 1 10 км 10// 600 м
[Cb cap]
+13.9 +11.0 83 +14 +23 по сезону 1008.8 913.4 +11.5 0.7
09 21.04 штиль 0 10 км слаб. ливневой дождь 10/10 600 м
[Cb cap]
+15.5 +11.6 78 +15 +15 по сезону 1010.0 915.1
12 21.04 штиль 0 4000 м слаб. ливневой дождь 10/10 600 м
[Cb cap]
+11.9 +11.4 97 +11 +11 холодно 1012.2 915.8
15 21.04 штиль 0 н/о в посл. час ливневой дождь 10/10 600 м
[Cb cap]
+11.5 +11.0 97 +11 +11 прохладно 1014.3 917.6 +16.4
18 21.04 штиль 0 н/о {ливн. осадки} 10/8 600 м
[Cb cap Ac As]
+11.1 +10.2 94 +10 +10 по сезону 1013.9 917.1 +16.4 2
21 21.04 штиль 0 н/о слаб. ливневой дождь 10/10 600 м
[Cb cap]
+11.9 +11.2 95 +11 +11 по сезону 1015.0 918.4
00 22.04 штиль 0
{4}
4000 м слаб. ливневой дождь 10/10 600 м
[Cb cap]
+10.7 +8.6 87 +10 +10 по сезону 1017.6 920.3
03 22.04 штиль 0 4000 м слаб. ливневой дождь 10/10 600 м
[Cb cap]
+9.9 +8.9 93 +9 +9 прохладно 1019.7 921.9
06 22.04 штиль 0 10 км {ливн. осадки} 10/10 1000 м
[Cb cap]
+12.2 +10.3 88 +12 +12 прохладно 1017.4 920.7 +9.9 12
09 22.04 С 2 10 км 10/10 1000 м
[Cb cap]
+11.8 +9.7 87 +11 +11 холодно 1017.0 920.2
12 22.04 С 1 4000 м слаб. ливневой дождь 10/10 600 м
[Cb cap]
+11.3 +9.2 87 +11 +11 холодно 1018.5 921.3
15 22.04 ЮЗ 1 н/о {ливн. осадки} 8/0
[Ac trans Ci fib]
+8.8 +8.2 96 +8 +8 холодно 1019.8 921.6 +13.4
18 22.04 штиль 0 н/о {ливн. осадки} 8/0
[Ci fib]
+8.7 +6.6 87 +8 +8 прохладно 1018.2 920.2 +13.4 3
21 22.04 ЮВ 1 н/о {ливн. осадки} 10/0
[Ci fib]
+9.1 +7.1 87 +8 +8 по сезону 1016.4 918.7
00 23.04 штиль 0
{4}
10 км {ливн. осадки} 10/5 1000 м
[Cb cap Ac trans Ci fib]
+8.9 +7.3 90 +8 +8 по сезону 1016.4 918.6
03 23.04 штиль 0 20 км 10/3 600 м
[Cb cap Ac As Ci sp]
+11.2 +8.9 86 +11 +14 по сезону 1015.1 918.2
06 23.04 С 2 10 км 4/3 600 м
[Cb cap Ci fib]
+16.0 +7.5 57 +16 +27 по сезону 1011.6 916.5 +8.1 0.4
09 23.04 С 2 10 км 10/3 600 м
[Cb cap Cs]
+17.9 +8.8 55 +18 +26 по сезону 1009.7 915.4
12 23.04 СВ 1 10 км 10/8 600 м
[Cb cap Ac As]
+17.9 +8.1 53 +19 +19 тепло 1010.2 915.9
15 23.04 СВ 1 н/о слаб. ливневой дождь 10/10 600 м
[Cb cap]
+13.9 +8.5 70 +14 +14 по сезону 1014.8 918.8 +19.2
18 23.04 ЮВ 1 н/о {ливн. осадки} 10/6 600 м
[Cb cap Ac As Ci fib]
+12.1 +9.4 84 +12 +12 по сезону 1014.5 917.9 +19.2 0.4
21 23.04 штиль 0 н/о ясно +10.4 +7.4 82 +10 +10 по сезону 1011.7 914.8

 

Местоположение метеостанции Алматы (Алматинская область, Казахстан): широта 43.23 долгота 76.93 высота над уровнем моря 851 м.

В архиве по умолчанию представлена погода в Алматы за последнюю неделю. Архивные данные за месяц целиком и за предыдущие месяцы, начиная с января 2011 года, Вы можете получить, выбрав интересующий диапазон дат из раскрывающегося списка и нажав кнопку "Ввод!".


*Определитесь, кто Вы:
робот инопланетянин человек

Внимание! Время в таблицах - всемирное. Для получения местного времени необходимо прибавить поправку, которая равна 6 ч.

Смотрите также архив погоды в соседних городах и на ближайших метеорологических станциях:

Погода в Алматы АМС (Алматинская область, Казахстан) (4 км)
Погода в Каменском плато (Алматинская область, Казахстан) (6 км)
Погода в Медеу (Алматинская область, Казахстан) (12 км)
Погода в Карасайском (Алматинская область, Казахстан) (15 км)
Погода в Шымбулаке (Алматинская область, Казахстан) (16 км)
Погода на Большом Алматинском озере (Алматинская область, Казахстан) (18 км)
Погода в Альмереке (Алматинская область, Казахстан) (21 км)
Погода в Коныролене (Алматинская область, Казахстан) (24 км)
Погода в Рыскулово (Алматинская область, Казахстан) (30 км)
Погода в Илийском (Алматинская область, Казахстан) (33 км)

Пояснения к столбцам:

Ветер - указаны скорость ветра в м/с - средняя за 10 мин, порывы в срок и между сроками (в фигурных скобках) и направление, откуда дует ветер: С - северный, СВ - северо-восточный, В - восточный, ЮВ - юго-восточный, Ю - южный, ЮЗ - юго-западный, З - западный, СЗ - северо-западный.
Видимость - горизонтальная дальность видимости в метрах или километрах. При видимости от 1 до 10 км при отсутствии осадков обычно наблюдается дымка, при ухудшении видимости до 1 км и менее - туман. В сухую погоду видимость может ухудшаться дымом, пылью или мглою.
Явления - указаны атмосферные явления, наблюдавшиеся в срок или в последний час перед сроком; фигурными скобками обозначены явления, наблюдавшиеся между сроками (за 1-3 часа до срока); квадратными скобками обозначены град или гололедные отложения с указанием их диаметра в мм.
Облачность - указаны через наклонную черту общая и нижняя облачность в баллах и высота нижней границы облаков в метрах; квадратными скобками обозначены формы облаков: Ci - перистые, Cs - перисто-слоистые, Cc - перисто-кучевые, Ac - высококучевые, As - высокослоистые, Sc - слоисто-кучевые, Ns - слоисто-дождевые, Cu - кучевые, Cb - кучево-дождевые. Подробнее классификацию облаков см. в Атласе облаков (PDF).
T - Температура воздуха - температура, измеренная на высоте 2 м над землей.
Td - Температура точки росы - температура, при понижении до которой содержащийся в воздухе водяной пар достигнет насыщения.
f - Относительная влажность воздуха - влажноcть воздуха, измеренная на высоте 2 м над землей.
Te - Эффективная температура - температура, которую ощущает одетый по сезону человек в тени. Характеристика душности погоды. При расчете учитывается влияние влажности воздуха и скорости ветра на теплоощущения человека.
Tes - Эффективная температура на солнце - температура, которую ощущает человек, с поправкой на солнечный нагрев. Характеристика знойности погоды. Зависит от высоты солнца над горизонтом, облачности и скорости ветра. Ночью, в пасмурную погоду, а также при ветре 12 м/с и более поправка равна нулю.
P - Атмосферное давление - приведенное к уровню моря атмосферное давление.
Po - Атмосферное давление - измеренное на уровне метеостанции атмосферное давление.
Tmin - Минимальная температура - минимум температуры воздуха на высоте 2 м над землей.
Tmax - Максимальная температура - максимум температуры воздуха на высоте 2 м над землей.
R - Количество осадков - Количество выпавших осадков за период времени, мм. При наведении курсора мыши на число - период времени, за который выпало указанное количество осадков.
R24 - Количество осадков - Количество выпавших осадков за 24 часа, мм.
S - Снежный покров - Высота снежного покрова, см. При наведении курсора мыши на число - состояние снежного покрова и степень покрытия местности в баллах.